NOAA NWS Hourly Roundups by Site

Regional Weather Roundup for State College, PA

To Select Another Site Choose from List

Select Site:  

000
ASUS41 KCTP 181810
RWRCTP

REGIONAL WEATHER ROUNDUP
NATIONAL WEATHER SERVICE STATE COLLEGE PA
100 PM EST SUN NOV 18 2018

Note: "fair" indicates few or no clouds below 12,000 feet with no
significant weather and/or obstructions to visibility.

* = STATION THAT DOES NOT REPORT PRECIPITATION /E.G. RAIN...SNOW...ETC/
    THUNDER OR FOG.

PAZ002>004-007>009-013>016-020>023-029>032-181900-
WESTERN PENNSYLVANIA

CITY           SKY/WX    TMP DP  RH WIND       PRES   REMARKS
ERIE           LGT RAIN  37  33  85 CALM      30.20F FOG
MEADVILLE      CLOUDY    35  32  88 CALM      30.16F
FRANKLIN*      CLOUDY    37  34  89 CALM      30.17S
NEW CASTLE     CLOUDY    40  34  79 CALM      30.17F
BEAVER COUNTY  CLOUDY    43  34  70 CALM      30.16F
BUTLER*        CLOUDY    44  36  73 VRB3      30.15F
PITTSBURGH INT CLOUDY    47  36  65 VRB3      30.14F
PITTSBURGH     FAIR      49  38  65 W7        30.14F
INDIANA*       MOSUNNY   46  36  66 S7        30.18F
LATROBE        PTSUNNY   50  37  62 SW9       30.14F
WASHINGTON CO* FAIR      52  38  58 W12       30.16F
$$

PAZ004>006-010>012-017>019-024>028-033>037-041-042-045-046-049>053-181900-
CENTRAL PENNSYLVANIA

CITY           SKY/WX    TMP DP  RH WIND       PRES   REMARKS
BRADFORD       CLOUDY    33  31  92 SE3       30.14F
DUBOIS         CLOUDY    37  31  78 SE7       30.12F
CLEARFIELD     CLOUDY    40  32  73 VRB5      30.17F
JOHNSTOWN      FAIR      42  33  70 S10       30.12F
ALTOONA        FAIR      39  30  70 SW7       30.19F
STATE COLLEGE  CLOUDY    37  30  75 S5        30.20F
WILLIAMSPORT   CLOUDY    39  29  67 E7        30.24F
SELINSGROVE    CLOUDY    40  31  70 S8        30.27F
FT INDIANTOWN  CLOUDY    41  31  69 SE6       30.29F
CAPITAL CITY   CLOUDY    42  33  70 E5        30.29F
HARRISBURG     CLOUDY    43  33  68 SE6       30.28F
YORK           CLOUDY    43  32  65 CALM      30.28F
$$

PAZ038>040-043-044-047-048-054-055-060>062-067>071-181900-
EASTERN PENNSYLVANIA

CITY           SKY/WX    TMP DP  RH WIND       PRES   REMARKS
SCRANTON       CLOUDY    38  25  59 SW5       30.26F
MOUNT POCONO   CLOUDY    31  24  75 SE8       30.24S
ALLENTOWN      CLOUDY    41  26  55 E5        30.31F
QUAKERTOWN*    CLOUDY    39  28  65 SE5       30.31F
READING        CLOUDY    42  31  64 SE5       30.29F
LANCASTER      CLOUDY    45  35  68 S8        30.29F
COATESVILLE    CLOUDY    43  32  65 SE6       30.30F
POTTSTOWN      CLOUDY    41  29  62 VRB3      30.32F
BLUE BELL      FAIR      43  32  65 SE3       30.32F
DOYLESTOWN     CLOUDY    41  28  60 CALM      30.30F
WILLOW GROVE   NOT AVBL
NORTH PHILA    PTSUNNY   47  30  51 SE3       30.33F
PHILADELPHIA   CLOUDY    46  30  53 S6        30.32F
$$


 

View Past Reports for State College, PA.

Products Courtesy of NOAA-NWS
NWS Information Parsing Script by Ken True at Saratoga Weather - Script by SE Lincoln Weather.